Flag for France Weather past 2 weeks in Poitiers, France

Now
82 °F

Clear.


Feels Like: 83 °F
Forecast: 62 / 85 °F
Wind: 7 mph from Northeast

Location: Poitiers Airport

Current Time: Jul 23, 2014 at 8:25:41 PM

Latest Report: Jul 23, 2014 at 8:00 PM


Visibility: N/A

Pressure: 29.89 "Hg

Humidity: 51%

Dew point: 63 °F

Location of PoitiersLocation

Historic Weather in Poitiers — Graph

°F

Poitiers temperature yesterday

Maximum temperature yesterday: 79 °F (at 2:30 PM)
Minimum temperature yesterday: 59 °F (at 5:00 AM)
Average temperature yesterday: 68 °F

Past Weeks' High & Low Weather Summary

 TemperatureHumidityPressure
High93 °F (Jul 17, 5:00 PM)100% (Jul 13, 5:00 AM)30.18 "Hg (Jul 13, 5:00 AM)
Low52 °F (Jul 15, 5:30 AM)32% (Jul 17, 5:00 PM)29.71 "Hg (Jul 19, 2:00 AM)
Average68 °F74%30.03 "Hg
* Reported Jul 8 7:00 PM — Jul 23 7:30 PM, Poitiers, Weather by CustomWeather, © 2014

Note: Actual official high and low records may vary slightly from our data, if they occured in-between our weather recording intervals... More about our weather records

Advertising

Poitiers weather history for previous 24 hours

 ConditionsComfort  
Time TempWeatherWind HumidityBarometerVisibility
7:30 PM
Jul 23
82 °FWarm.7 mph51%29.89 "HgN/A
7:00 PM82 °FWarm.7 mph51%29.92 "HgN/A
6:30 PM84 °FWarm.7 mph48%29.92 "HgN/A
6:00 PM82 °FClear.9 mph55%29.92 "HgN/A
5:30 PM82 °FPassing clouds.9 mph55%29.92 "HgN/A
5:00 PM82 °FClear.9 mph55%29.92 "HgN/A
4:30 PM81 °FClear.10 mph58%29.92 "HgN/A
4:00 PM81 °FPassing clouds.10 mph58%29.95 "HgN/A
3:00 PM79 °FClear.13 mph61%29.95 "HgN/A
1:00 PM75 °FClear.10 mph69%29.98 "HgN/A
12:30 PM75 °FClear.9 mph69%29.98 "HgN/A
12:00 PM73 °FPassing clouds.10 mph74%29.98 "HgN/A
11:00 AM73 °FPassing clouds.7 mph74%30.01 "HgN/A
7:30 AM64 °FOvercast.5 mph94%30.01 "Hg5 mi
7:00 AM64 °FPassing clouds.6 mph88%30.01 "Hg6 mi
6:30 AM64 °FPassing clouds.5 mph88%30.01 "HgN/A
6:00 AM64 °FPassing clouds.5 mph88%30.01 "HgN/A
5:30 AM66 °FMostly cloudy.6 mph88%30.04 "HgN/A
5:00 AM66 °FOvercast.5 mph88%30.04 "HgN/A
4:30 AM66 °FMostly cloudy.6 mph88%30.04 "HgN/A
4:00 AM66 °FOvercast.6 mph88%30.04 "HgN/A
3:30 AM66 °FOvercast.5 mph83%30.07 "HgN/A
3:00 AM66 °FOvercast.6 mph83%30.07 "HgN/A
2:30 AM66 °FOvercast.6 mph83%30.07 "HgN/A
2:00 AM66 °FPassing clouds.5 mph83%30.07 "HgN/A
1:00 AM66 °FPassing clouds.5 mph78%30.09 "HgN/A
Weather by CustomWeather, © 2014

See weather overviewHow to use our weather pages